Regional Weather Roundup
Issued by NWS

Home | Current Version | Previous Version | Text Only | Print | Product List | Glossary On
Versions: 1 2 3 4 5 6 7 8 9 10 11 12 13 14 15 16 17 18 19 20 21 22 23 24 25 26 27 28 29 30 31 32 33 34 35 36 37 38 39 40 41 42 43 44 45 46 47 48 49 50
058
ASUS43 KMPX 020710
RWRMN
WEATHER ROUNDUP FOR MINNESOTA
NATIONAL WEATHER SERVICE TWIN CITIES/CHANHASSEN MN
200 AM CDT SAT JUL 02 2016


NOTE: "FAIR" INDICATES FEW OR NO CLOUDS BELOW 12,000 FEET WITH NO
SIGNIFICANT WEATHER AND/OR OBSTRUCTIONS TO VISIBILITY. N/A MEANS
CURRENT SKY AND/OR WEATHER CONDITIONS ARE NOT AVAILABLE.

MNZ060>063-068>070-020800-
   Twin Cities Metro

CITY           SKY/WX    TMP DP  RH WIND       PRES   REMARKS
TWIN CITIES    MOCLDY    63  51  65 SE5       30.13F
ST PAUL        CLOUDY    60  54  80 E3        30.13F
CRYSTAL        CLOUDY    57  49  74 CALM      30.11F
BLAINE         CLOUDY    55  52  88 CALM      30.12F
LAKEVILLE      MOCLDY    54  54 100 CALM      30.13F
EDEN PRAIRIE   CLOUDY    62  51  67 SE3       30.11F
LAKEVILLE      MOCLDY    54  54 100 CALM      30.13F
SOUTH ST PAUL  CLOUDY    60  53  76 CALM      30.13F
LAKE ELMO      FAIR      54  52  94 CALM      30.14F
$$
MNZ001>005-007-008-013>017-022>024-027-028-020800-
   Northwest Minnesota

CITY           SKY/WX    TMP DP  RH WIND       PRES   REMARKS
BEMIDJI        CLOUDY    53  48  84 CALM      30.12S
HALLOCK        PTCLDY    57  54  88 E5        30.08F
ROSEAU         CLOUDY    55  50  82 CALM      30.10F
WARROAD        CLOUDY    55  52  88 CALM      30.11F
THIEF RVR FALL PTCLDY    56  49  77 E7        30.11F
CROOKSTON      CLOUDY    57  48  72 E5        30.09F
FOSSTON        CLOUDY    54  48  82 CALM      30.12S
DETROIT LAKES  CLOUDY    61  50  67 SE5       30.11F
MOORHEAD       CLOUDY    63  48  59 SE3       30.08F
PARK RAPIDS    CLOUDY    60  47  61 SE7       30.12F
MAHNOMEN       FAIR      59  50  72 E5        30.10F
$$
MNZ006-009>011-018-025>026-020800-
   North Central Minnesota

CITY           SKY/WX    TMP DP  RH WIND       PRES   REMARKS
BAUDETTE       CLOUDY    52  50  93 CALM      30.10F
FLAG ISLAND    PTCLDY    61  48  63 NW8       30.09S
INTL FALLS     PTCLDY    45  43  93 CALM      30.11F
WASKISH        CLOUDY    52  48  87 CALM      30.12S
BIG FORK       MOCLDY    46  45  93 CALM      30.13S
LONGVILLE      CLOUDY    50  50 100 CALM      30.13F
GRAND RAPIDS   MOCLDY    51  50  96 CALM      30.15F
CRANE LAKE     CLEAR     43  43 100 CALM      30.13F
ORR            PTCLDY    46  45  93 CALM      30.10F
COOK           PTCLDY    48  46  93 CALM      30.13F
WALKER         FAIR      51  49  93 CALM      30.12S
$$
MNZ012-019>021-037-020800-
   Northeast Minnesota

CITY           SKY/WX    TMP DP  RH WIND       PRES   REMARKS
DULUTH         PTCLDY    54  47  77 W6        30.13F
ELY            CLEAR     48  46  93 CALM      30.12F
HIBBING        MOCLDY    45  45 100 CALM      30.13S
EVELETH        PTCLDY    47  46  95 CALM      30.14S
DULUTH HARBOR  CLEAR     59  54  82 SW7       30.13S
TWO HARBORS    CLEAR     57  50  77 NW3       30.10F
SILVER BAY     CLEAR     48  48 100 CALM      30.10F
GRAND MARAIS     N/A     62  44  51 NW8       30.06F
G MARAIS ARPRT CLEAR     54  43  66 W5        30.12S
$$
MNZ029>031-032-039>041-046>048-054>057-064-020800-
   West Central Minnesota

CITY           SKY/WX    TMP DP  RH WIND       PRES   REMARKS
FERGUS FALLS   CLOUDY    64  52  63 SE6       30.07S
WHEATON        CLOUDY    59  54  82 SE5       30.11F
MORRIS         CLOUDY    55  52  88 SE6       30.10S
ALEXANDRIA     CLOUDY    61  47  59 SE6       30.13F
ELBOW LAKE     FAIR      62  51  67 SE5       30.11S
WADENA         PTCLDY    55  48  76 CALM      30.12S
GLENWOOD       CLOUDY    55  50  82 SE5       30.12F
APPLETON       CLEAR     57  48  72 SE6       30.09S
BENSON         PTCLDY    57  48  72 S5        30.10F
ORTONVILLE     CLEAR     57  50  77 SE7       30.09F
MADISON        CLEAR     54  48  82 CALM      30.10R
WILLMAR        FAIR      57  52  82 SE5       30.12F
$$
MNZ033>034-036-042>043-049>051-058-059-020800-
   Central Minnesota

CITY           SKY/WX    TMP DP  RH WIND       PRES   REMARKS
ST CLOUD       MOCLDY    54  51  90 CALM      30.12F
SAUK CENTRE    FAIR      55  49  81 CALM      30.12F
PAYNESVILLE    MOCLDY    59  51  74 CALM      30.12F
AITKIN         PTCLDY    52  46  82 CALM      30.12S
PINE RIVER     CLOUDY    52  50  93 CALM      30.16S
BRAINERD       PTCLDY    54  51  90 CALM      30.13F
STAPLES        MOCLDY    57  48  72 CALM      30.13S
LONG PRAIRIE   FAIR      55  52  88 CALM      30.13F
LITTLE FALLS   CLOUDY    54  48  82 CALM      30.13S
LITCHFIELD     PTCLDY    57  54  88 SE3       30.12F
BUFFALO        PTCLDY    56  50  79 CALM      30.13F
HUTCHINSON     PTCLDY    58  53  83 CALM      30.13F
$$
MNZ037-044-045-052-053-020800-
   East Central Minnesota

CITY           SKY/WX    TMP DP  RH WIND       PRES   REMARKS
PRINCETON      MOCLDY    52  50  93 CALM      30.12F
MORA           CLOUDY    50  50 100 CALM      30.15F
CAMBRIDGE      MOCLDY    55  46  71 CALM      30.11F
RUSH CITY      PTCLDY    52  49  92 CALM      30.13F
MOOSE LAKE     CLOUDY    50  48  93 CALM      30.12F
HINCKLEY       FAIR      50  50 100 CALM      30.13F
CLOQUET        PTCLDY    50  46  87 CALM      30.14S
MCGREGOR       PTCLDY    52  50  93 CALM      30.14S
$$
MNZ071>073-080-081-089-090-097-098-020800-
   Southwest Minnesota

CITY           SKY/WX    TMP DP  RH WIND       PRES   REMARKS
MONTEVIDEO     CLEAR     57  52  82 S6        30.11F
GRANITE FALLS  CLOUDY    62  54  76 SE7       30.11F
CANBY          CLOUDY    58  55  88 CALM      30.10F
MARSHALL       CLOUDY    60  55  83 SE7       30.10F
REDWOOD FALLS  PTCLDY    61  51  70 SE6       30.10F
OLIVIA         CLOUDY    55  50  82 SE5       30.11S
PIPESTONE      MOCLDY    61  54  77 SE3       30.10S
WINDOM         CLOUDY   N/A N/A N/A SE6       30.12F
WORTHINGTON    CLOUDY    63  55  75 SE7       30.11F
JACKSON        CLOUDY    63  52  67 SE7       30.12F
TRACY          PTCLDY    63  55  75 S6        30.11S
SLAYTON        CLOUDY    58  55  87 SE5       30.12S
$$
MNZ065>067-074>077-082>085-091>093-020800-
   South Central Minnesota

CITY           SKY/WX    TMP DP  RH WIND       PRES   REMARKS
MANKATO        CLOUDY    61  52  72 SE6       30.13F
NEW ULM        CLOUDY    61  52  72 SE7       30.11F
ST JAMES       CLOUDY    55  52  88 SE3       30.12F
FAIRMONT       CLOUDY    61  52  72 SE8       30.12F
GLENCOE        PTCLDY    59  54  84 CALM      30.12F
FARIBAULT      CLOUDY    55  54  94 CALM      30.13F
OWATONNA       MOCLDY    57  54  88 E6        30.13F
WASECA         MOCLDY    55  52  88 SE5       30.14F
ALBERT LEA     CLOUDY    63  55  77 CALM      30.14F
$$
MNZ078>079-086>088-094>096-020800-
   Southeast Minnesota

CITY           SKY/WX    TMP DP  RH WIND       PRES   REMARKS
ROCHESTER      CLOUDY    58  54  86 SE5       30.16F
RED WING       CLOUDY    54  52  94 CALM      30.13F
STANTON        CLOUDY    55  51  86 CALM      30.12F
DODGE CENTER   CLOUDY    57  52  82 SE3       30.14F
WINONA         MOCLDY    55  54  94 CALM      30.15F
AUSTIN         MOCLDY    59  55  88 CALM      30.14F
PRESTON        MOCLDY    58  51  75 CALM      30.16F
$$
ABBREVIATIONS USED IN REMARKS
   TC - TEMPERATURES IN CELSIUS
  WCI - WIND CHILL INDEX
   HX - HEAT INDEX
  VSB - VISIBILITY
$$




USA.gov is the U.S. government's official web portal to all federal, state and local government web resources and services.